Location: Green River State Wildlife Area
(41.6390°N, 89.5080°W)
Time: 14:32:05
(UTC-05:00)

Daily predictions for brighter satellites

Satellite Brightness Start Highest point End
(mag) Time Altitude Azimuth Time Altitude Azimuth Time Altitude Azimuth
Cosmos 2098 Rocket 2.8 20:46:55 10° NNW 20:50:07 73° W 20:53:59 10° S
H-2A R/B 3.1 20:47:53 10° S 20:51:49 72° WSW 20:55:47 10° NNW
Cosmos 1242 Rocket 4.1 20:48:17 10° SSW 20:51:50 41° WNW 20:55:25 10° N
Cosmos 1844 Rocket 4.2 20:47:50 10° NW 20:52:58 36° WSW 20:58:04 10° S
Lacrosse 5 3.3 20:49:32 10° WSW 20:54:21 43° NW 20:59:11 10° NE
ATLAS CENTAUR R/B 1.9 20:51:59 10° SSW 20:56:56 89° NW 21:02:01 10° NNE
USA 186 2.7 20:54:22 10° S 20:57:14 42° W 20:59:55 10° NNW
Cosmos 1980 4.3 20:51:55 10° SW 20:57:32 64° WNW 21:03:13 10° NNE
Cosmos 158 Rocket 3.9 20:52:35 10° SSW 20:57:38 85° ESE 21:02:51 10° NNE
SeaSat 1 3.0 20:53:46 10° SE 20:58:27 45° ENE 21:03:09 10° NNW
Cosmos 2228 3.8 20:59:37 10° N 21:03:43 37° ENE 21:07:48 10° SE
Cosmos 2251 Rocket 3.5 20:58:52 10° SSW 21:04:10 80° ESE 21:09:33 10° NNE
FENGYUN 3A 4.3 21:00:12 10° S 21:05:29 59° W 21:10:49 10° NNW
Cosmos 1892 Rocket 3.6 21:01:23 10° S 21:05:47 73° E 21:10:14 10° NNE
Cosmos 1025 Rocket 3.3 21:01:24 10° SSW 21:05:47 77° W 21:10:11 10° N
BREEZE-M DEB (TANK) 1.7 21:08:32 10° NW 21:11:31 85° NE 21:13:12 14° SE
Atlas Centaur 2 4.1 21:08:14 10° SSW 21:14:02 23° SSE 21:20:14 10° ESE
ALOS 3.6 21:10:42 10° SSW 21:15:05 40° W 21:19:29 10° NNW
YAOGAN 6 4.3 21:13:00 12° ESE 21:15:30 21° ENE 21:18:20 10° NNE
Nimbus 7 Rocket 4.5 21:09:56 10° NNE 21:15:53 62° ESE 21:21:43 10° S
COSMOS 2455 4.0 21:14:12 10° SSE 21:18:33 21° ESE 21:22:54 10° ENE
Cosmos 2237 Rocket 3.4 21:15:06 10° SW 21:20:29 46° WNW 21:25:55 10° NNE
ATLAS 3B R/B 4.4 21:18:09 12° SE 21:20:56 14° ESE 21:24:36 10° ENE
Meteor 1-15 Rocket 4.3 21:15:39 10° N 21:21:12 64° ENE 21:26:45 10° SSE
SL-8 R/B 4.4 21:16:32 10° W 21:21:17 57° NNW 21:26:04 10° ENE
Envisat 3.1 21:16:57 10° SSE 21:21:58 65° ENE 21:27:00 10° N
Cosmos 1110 Rocket 4.2 21:17:49 10° NNW 21:23:08 75° WSW 21:28:22 10° SSE
Cosmos 2285 Rocket 4.0 21:17:08 10° NNW 21:23:29 82° ENE 21:29:39 11° SSE
ERS-1 Rocket 3.4 21:18:39 10° S 21:23:37 63° WSW 21:28:37 10° NNW
Cosmos 1939 Rocket 2.9 21:19:50 10° SSE 21:23:59 85° ENE 21:28:10 10° N
Cosmos 2278 Rocket 3.5 21:22:15 10° NW 21:27:27 38° WSW 21:32:38 10° S
Cosmos 1726 Rocket 4.3 21:27:05 10° NNW 21:31:26 53° W 21:35:43 10° S
PSLV R/B 3.1 21:30:19 17° SSE 21:32:35 71° ENE 21:35:41 10° N
USA 234 3.4 21:27:51 14° ESE 21:33:42 77° NE 21:40:17 10° NW
Cosmos 1464 Rocket 4.1 21:32:18 10° N 21:38:26 81° W 21:44:35 10° S
Cosmos 2058 Rocket 3.7 21:35:37 10° NNW 21:39:55 56° W 21:44:10 10° S
Lacrosse 5 rocket 2.4 21:36:25 10° WSW 21:40:11 47° NW 21:44:09 10° NE
Cosmos 2369 Rocket 3.8 21:38:02 10° N 21:42:28 23° NE 21:46:13 12° E
Cosmos 1666 2.9 21:42:14 10° NNW 21:46:08 74° W 21:49:18 15° S
SL-16 R/B 2.7 21:41:06 10° SW 21:46:41 62° WNW 21:52:19 10° NNE
Abrixas rocket 2.2 21:43:40 10° WNW 21:47:06 87° NNE 21:48:53 27° ESE
Aureole 2 Rocket 2.7 21:45:04 10° SSW 21:49:06 85° WNW 21:52:47 10° NNE
Cosmos 1602 Rocket 3.5 21:45:06 10° S 21:49:34 78° E 21:54:03 10° N
Okean 2 4.3 21:45:51 10° SSW 21:49:54 49° W 21:54:00 10° N
ARGOS 3.6 21:48:12 20° SE 21:51:41 48° ENE 21:56:53 10° N
H-2A R/B 3.4 21:50:29 16° ESE 21:52:57 23° ENE 21:56:53 10° NNE
Cosmos 2034 Rocket 4.1 21:49:16 10° N 21:55:41 80° W 22:01:30 12° S
UNK 4.2 21:51:54 10° NNE 21:57:18 87° ESE 22:02:56 10° SSW
Cosmos 1238 4.5 21:58:11 33° SSE 21:59:16 50° E 22:02:13 10° NNE
Cosmos 1812 Rocket 3.5 21:55:25 10° N 21:59:48 70° E 22:02:13 26° SSE
SPOT 1/Viking Rocket 3.5 21:57:45 22° SSE 22:01:06 72° ENE 22:06:16 10° N
Timation 1 Rocket 4.3 21:55:16 10° NNW 22:01:20 87° WSW 22:05:16 23° SSE
Cosmos 1461 2.8 21:57:23 10° NNW 22:01:44 79° ENE 22:03:39 31° SE
NAVSTAR 52 R/B(PAM-D 4.5 21:58:03 10° W 22:02:11 53° S 22:02:57 40° SE
USA 245 4.3 21:57:48 20° SSE 22:02:18 76° ENE 22:07:46 10° N
PSLV R/B 4.3 22:05:25 10° SW 22:07:53 30° S 22:07:53 30° S
Cosmos 1346 Rocket 4.0 22:10:07 24° E 22:10:11 24° E 22:13:21 10° NE
H-2A R/B 4.4 22:10:13 10° SW 22:13:17 19° W 22:16:25 10° NW
MetOp-B 4.4 22:10:02 18° S 22:13:59 64° WSW 22:19:19 10° NNW
DEBRIS 3.1 22:10:54 10° WNW 22:14:42 33° SW 22:15:03 31° SSW
CZ-4 R/B 3.9 22:10:07 10° NNE 22:15:06 74° ESE 22:18:29 21° S
Cosmos 1515 3.7 22:13:48 37° SSE 22:15:08 63° E 22:18:59 10° NNE
Cosmos 1603 3.6 22:09:40 10° SSW 22:15:18 89° ESE 22:20:56 10° NNE
Geosat 4.0 22:11:12 10° NNE 22:16:12 62° ESE 22:19:56 18° S
Milstar 3 Cent rocket 4.2 22:17:19 10° SW 22:18:58 11° SSW 22:19:50 11° SSW
SPOT 5 4.0 22:17:32 13° SSW 22:21:01 34° W 22:25:00 10° NNW
SeaSat 1 4.2 22:32:57 14° SSW 22:36:06 25° WSW 22:40:07 10° NW
Landsat 7 3.7 22:35:43 42° SSE 22:37:20 79° ENE 22:42:07 10° N
CZ-4B R/B 4.4 22:33:51 10° N 22:38:41 47° WNW 22:43:35 10° SW
Cosmos 1953 Rocket 3.5 22:38:28 49° SSE 22:39:23 63° E 22:43:46 10° NNE
Cosmos 1943 3.2 22:39:28 33° S 22:41:55 62° ESE 22:47:33 10° NNE
DELTA 2 DEB (DPAF) 4.2 22:40:32 42° S 22:42:01 75° WSW 22:46:31 10° NNW
Cosmos 2346 Rocket 4.4 22:41:46 26° S 22:45:31 87° W 22:51:43 10° N
YAOGAN 6 4.5 22:47:30 20° SW 22:48:57 26° W 22:52:06 10° NW
Cosmos 1766 3.6 22:46:05 10° N 22:49:59 49° E 22:50:05 49° E
Terra 1.7 22:51:59 52° SSE 22:53:08 79° ENE 22:57:55 10° N
Spot 2 4.3 22:49:07 10° NNE 22:53:50 71° ESE 22:54:59 51° SSE
CZ-4C R/B 4.0 22:53:47 40° SSW 22:54:56 52° W 22:59:02 10° NNW
Cosmos 1943 Rocket 3.2 22:54:08 10° N 22:59:10 34° ENE 23:01:00 27° E
Atlas Centaur 2 3.5 22:55:31 10° SW 23:02:53 36° S 23:03:19 36° SSE
COSMOS 2455 3.2 22:58:00 10° SW 23:03:56 63° WNW 23:09:56 10° NNE
IGS 5A 3.3 23:06:01 73° SSW 23:06:21 81° WSW 23:10:32 10° NNW
Cosmos 407 Rocket 3.4 23:05:15 52° S 23:06:29 75° ESE 23:11:43 10° NNE
Cosmos-2242 3.3 23:04:17 10° N 23:08:37 53° E 23:08:43 53° E
ATLAS 3B R/B 2.8 23:05:14 22° SSW 23:10:33 74° ESE 23:18:04 10° NE
Cosmos 1758 Rocket 3.8 23:13:15 54° SW 23:14:02 66° W 23:18:24 10° N
USA 234 4.3 23:15:11 26° SSW 23:17:04 30° SW 23:22:42 10° WNW
Cosmos 1953 2.8 23:13:34 10° N 23:17:03 49° NE 23:17:03 49° NE
CARTOSAT-1 4.0 23:17:46 47° SW 23:18:16 50° W 23:22:30 10° NNW
CZ-4B R/B 4.1 23:23:54 13° ENE 23:23:54 13° ENE 23:25:20 10° NE
Cosmos 1954 Rocket 4.0 23:24:13 61° SE 23:24:32 62° ESE 23:29:47 10° NNE
Lacrosse 4 Rocket 1.5 23:26:58 65° NNE 23:26:58 65° NNE 23:30:30 10° NNE
Cosmos 2369 Rocket 2.4 23:21:20 10° NNW 23:26:54 58° WSW 23:28:01 49° SSW
Cosmos 1805 3.9 23:23:54 10° N 23:27:10 49° NE 23:27:10 49° NE
Cosmos 1092 Rocket 4.4 23:28:12 43° ESE 23:29:12 47° E 23:35:12 10° NNE
H-2A R/B 2.7 23:31:07 37° SW 23:32:07 41° W 23:36:50 10° NNW
USA 238 DEB 3.9 23:39:28 48° SE 23:40:11 50° ESE 23:46:57 10° NE
USA 238 3.9 23:39:36 48° SE 23:40:16 50° ESE 23:47:02 10° NE
Nadezhda 4 Rocket 3.9 23:42:14 57° S 23:43:37 82° E 23:49:59 10° N
Cosmos 1842 Rocket 3.8 23:39:24 10° N 23:43:20 61° NE 23:43:20 61° NE
COSMOS 2406 3.5 23:44:13 51° ESE 23:44:13 51° ESE 23:49:38 10° NNE
Cosmos 2263 4.4 23:40:33 10° NNW 23:46:02 56° WSW 23:46:42 53° SW
Cosmos 1570 Rocket 4.1 23:45:49 10° NNW 23:51:09 65° ENE 23:51:37 62° E
ISS -0.3 23:55:47 12° NE 23:55:47 12° NE 23:56:02 10° NE
